sat.trackr.live / text

‹ back to catalog

STARLINK-11565 [DTC]

NORAD 62912 · 2025-027F

PAYLOAD ACTIVE UNKNOWN

§ Identity

Operator
Country
US
Launch date
2025-02-08
Launch site
AFETR
Launch vehicle
Mass (kg)
RCS (m²)

Purposes: comms

External: N2YO · Heavens-Above · Gunter

§ Orbital elements

Epoch: 2026-09-21T10:37:27.495840Z

Period
91.67 min
Inclination
42.9966°
Eccentricity
0.0001153
Mean motion
15.70871559 rev/d
Perigee alt
355.6 km
Apogee alt
357.2 km
Semi-major
6,734.5 km
B*
9.5209e-4
RAAN
247.3174°
Arg perigee
274.3446°
Mean anomaly
85.7290°
Rev number
9,394

§ Raw data

STARLINK-11565 [DTC]1 62912U 25027F   26264.44267935  .00123715  00000+0  95209-3 0  99922 62912  42.9966 247.3174 0001153 274.3446  85.7290 15.70871559 93940

JSON: /api/v1/satellites/62912 · /tle

For live sub-satellite position, see the globe view (requires WebGL).

§ Visibility from observer

Set your observer location to see the next 7 days of passes ≥ 10°. The values pass through the URL so the page stays shareable.

No JS? Fill the form by hand. The geolocation button needs JavaScript.